Simultaneous Nadir Overpasses (SNOs) Predictions

Prediction of SNOs between AQUA and NPP Satellite Orbit:

Table of predicted SNOs for the next 14.0 days since TLE Epoch: 5/15/2021
Index Date (AQUA) Time (AQUA) Lat,Lon (AQUA) SZA (AQUA ) Date (NPP) Time (NPP) Lat,Lon (NPP) SZA (NPP ) Distance(km) Time Diff (sec)
1 05/16/2021 21:52:19 -63.67,-107.37 88.95 05/16/2021 21:51:06 -63.83,-108.48 88.68 57.41 73
2 05/16/2021 22:37:59 75.88, 79.15 78.27 05/16/2021 22:37:58 75.88, 79.10 78.28 1.52 1
3 05/16/2021 23:26:03 -79.58, -96.40 106.50 05/16/2021 23:27:17 -79.41, -95.77 106.61 22.10 74
4 05/19/2021 14:05:12 -75.43, 26.06 101.77 05/19/2021 14:04:21 -75.43, 26.13 101.75 1.96 51
5 05/19/2021 14:54:20 76.27,-163.78 77.26 05/19/2021 14:54:47 76.26,-163.83 77.25 1.58 27
6 05/22/2021 06:21:33 -75.81, 143.05 102.73 05/22/2021 06:21:10 -75.82, 143.12 102.73 2.10 23
7 05/22/2021 07:10:42 76.59, -46.83 76.35 05/22/2021 07:11:37 76.59, -46.87 76.32 1.12 55
8 05/24/2021 21:48:53 74.78, 88.47 77.97 05/24/2021 21:47:42 74.78, 88.44 78.04 1.09 71
9 05/24/2021 22:37:52 -76.23, -99.77 103.70 05/24/2021 22:37:57 -76.24, -99.68 103.73 2.81 5
10 05/27/2021 14:05:11 75.31,-154.26 76.94 05/27/2021 14:04:28 75.31,-154.27 76.98 0.23 43



Historial Predications of SNOs between AQUA and NPP
